| time (UTC) | temp F | wind direction | speed MPH | gust MPH | rain 1hr in | rain 24hr in | rain mn in | humidity % | barometer mb |
| 20260505041546 | 54 | 307 | 3.0 | 5.0 | 0.00 | 0.26 | 0.01 | 91 | 1013.4 |
| 20260505040057 | 54 | 310 | 2.0 | 4.0 | 0.00 | 0.26 | 0.01 | 92 | 1013.3 |
| 20260505034547 | 54 | 308 | 2.0 | 5.0 | 0.00 | 0.34 | 0.01 | 94 | 1013.2 |
| 20260505033054 | 54 | 301 | 2.0 | 4.0 | 0.00 | 0.34 | 0.01 | 94 | 1013.2 |
| 20260505031551 | 54 | 288 | 2.0 | 4.0 | 0.00 | 0.34 | 0.01 | 94 | 1013.1 |
| 20260505030044 | 53 | 279 | 0.0 | 2.0 | 0.00 | 0.34 | 0.01 | 94 | 1013.1 |
| 20260505024540 | 53 | 312 | 1.0 | 3.0 | 0.00 | 0.42 | 0.01 | 94 | 1013.1 |
| 20260505023041 | 54 | 297 | 1.0 | 3.0 | 0.00 | 0.42 | 0.01 | 94 | 1013.1 |
| 20260505021538 | 54 | 290 | 1.0 | 3.0 | 0.00 | 0.42 | 0.01 | 94 | 1013.1 |
| 20260505020046 | 54 | 288 | 0.0 | 4.0 | 0.00 | 0.42 | 0.01 | 94 | 1012.9 |
| 20260505014545 | 54 | 276 | 2.0 | 6.0 | 0.00 | 1.22 | 0.01 | 94 | 1013.0 |
| 20260505013050 | 54 | 316 | 1.0 | 3.0 | 0.00 | 1.22 | 0.01 | 94 | 1013.0 |
| 20260505011545 | 54 | 302 | 2.0 | 6.0 | 0.00 | 1.22 | 0.01 | 94 | 1013.3 |
| 20260505010058 | 54 | 294 | 2.0 | 5.0 | 0.00 | 1.22 | 0.01 | 93 | 1013.4 |
| 20260505004548 | 54 | 301 | 1.0 | 4.0 | 0.00 | 1.22 | 0.01 | 93 | 1013.5 |
| 20260505003048 | 54 | 306 | 2.0 | 5.0 | 0.00 | 1.22 | 0.01 | 93 | 1013.5 |
| 20260505001547 | 54 | 303 | 3.0 | 4.0 | 0.00 | 1.22 | 0.01 | 93 | 1013.6 |
| 20260505000054 | 54 | 0 | 1.0 | 3.0 | 0.00 | 1.22 | 0.01 | 93 | 1013.7 |
| 20260504234541 | 54 | 0 | 1.0 | 4.0 | 0.00 | 1.22 | 0.01 | 93 | 1013.8 |
| 20260504233048 | 53 | 285 | 0.0 | 2.0 | 0.00 | 1.22 | 0.01 | 93 | 1013.7 |
| 20260504231542 | 53 | 310 | 0.0 | 1.0 | 0.00 | 1.22 | 0.01 | 93 | 1013.7 |
| 20260504230048 | 53 | 305 | 2.0 | 4.0 | 0.01 | 1.22 | 0.01 | 93 | 1013.8 |
| 20260504224543 | 53 | 0 | 0.0 | 4.0 | 0.04 | 1.22 | 0.01 | 92 | 1013.7 |
| 20260504223040 | 53 | 297 | 1.0 | 4.0 | 0.04 | 1.22 | 0.01 | 92 | 1013.8 |
| 20260504221543 | 54 | 0 | 0.0 | 2.0 | 0.04 | 1.22 | 0.01 | 91 | 1013.8 |
| 20260504220049 | 55 | 293 | 1.0 | 5.0 | 0.03 | 1.21 | 0.00 | 89 | 1014.2 |
| 20260504214545 | 56 | 312 | 3.0 | 5.0 | 0.00 | 1.17 | 1.17 | 83 | 1014.2 |
| 20260504213059 | 56 | 326 | 2.0 | 5.0 | 0.00 | 1.17 | 1.17 | 83 | 1014.1 |
| 20260504211544 | 56 | 327 | 1.0 | 3.0 | 0.03 | 1.17 | 1.17 | 84 | 1014.1 |
| 20260504210041 | 56 | 0 | 0.0 | 2.0 | 0.06 | 1.17 | 1.17 | 85 | 1014.1 |
| 20260504204559 | 56 | 0 | 0.0 | 0.0 | 0.06 | 1.17 | 1.17 | 86 | 1014.1 |
| 20260504203042 | 57 | 0 | 0.0 | 0.0 | 0.06 | 1.17 | 1.17 | 84 | 1014.0 |
| 20260504201547 | 57 | 0 | 2.0 | 5.0 | 0.03 | 1.15 | 1.15 | 84 | 1014.1 |
| 20260504200044 | 57 | 0 | 0.0 | 1.0 | 0.00 | 1.12 | 1.12 | 83 | 1013.9 |
| 20260504194541 | 58 | 0 | 0.0 | 2.0 | 0.00 | 1.12 | 1.12 | 82 | 1013.9 |
| 20260504193059 | 58 | 0 | 0.0 | 1.0 | 0.00 | 1.12 | 1.12 | 81 | 1014.0 |
| 20260504191548 | 58 | 0 | 0.0 | 4.0 | 0.00 | 1.12 | 1.12 | 80 | 1014.0 |
| 20260504190053 | 58 | 0 | 0.0 | 3.0 | 0.00 | 1.12 | 1.12 | 82 | 1013.9 |
| 20260504184544 | 58 | 312 | 0.0 | 2.0 | 0.00 | 1.12 | 1.12 | 83 | 1013.9 |
| 20260504183055 | 58 | 0 | 0.0 | 2.0 | 0.00 | 1.12 | 1.12 | 82 | 1013.8 |
| 20260504181546 | 59 | 0 | 0.0 | 0.0 | 0.00 | 1.12 | 1.12 | 78 | 1013.7 |
| 20260504180122 | 59 | 0 | 0.0 | 1.0 | 0.00 | 1.12 | 1.12 | 76 | 1013.5 |
| 20260504174548 | 60 | 0 | 0.0 | 1.0 | 0.00 | 1.12 | 1.12 | 76 | 1013.4 |
| 20260504173046 | 60 | 288 | 0.0 | 1.0 | 0.00 | 1.12 | 1.12 | 75 | 1013.3 |
| 20260504171547 | 61 | 0 | 0.0 | 3.0 | 0.00 | 1.12 | 1.12 | 74 | 1013.3 |
| 20260504081551 | 57 | 0 | 1.0 | 5.0 | 0.00 | 1.13 | 1.12 | 95 | 1013.0 |